Location: Newark
(40.8000°N, 14.5000°E)
Time: 02:57:53
(UTC+00:00)

OTV 5 (USA 277) - Pass Details

Date: 31 August 2019
Orbit: 310 x 324 km, 54.5° (Epoch: 08 October)

Event Time Altitude Azimuth Distance (km) Brightness Sun altitude
Rises 18:01:55 0° 280° (W) 2,039 ? -5.5°
Reaches altitude 10° 18:05:16 10° 326° (NW) 1,209 ? -6.1°
Maximum altitude 18:05:47 10° 337° (NNW) 1,189 ? -6.2°
Drops below altitude 10° 18:06:18 10° 348° (NNW) 1,209 ? -6.3°
Sets 18:09:39 0° 34° (NE) 2,038 ? -6.9°
